TAM3904 SBSP-SBRJ

Flight info

Callsign TAM3904
Flight time 0h 40m
Altitude 25000
Route NIBRU UZ171 KEVUN
Aircraft A319/M-SDE3FGHIRWY/LB1

Departure

Time 2026-05-06 15:53
Airport Congonhas–Deputado Freitas Nobre Airport (SBSP)

Arrival

Time 2026-05-06 16:34
Airport Santos Dumont Airport (SBRJ)
Time Latitude Longitude Altitude Speed Heading
2026-05-06 15:37 -23.62659 -46.65867 2601 ft 0 kts 237°
2026-05-06 15:47 -23.62648 -46.65845 2601 ft 4 kts 256°
2026-05-06 15:47 -23.62648 -46.65819 2601 ft 4 kts 307°
2026-05-06 15:48 -23.62655 -46.65811 2601 ft 0 kts 328°
2026-05-06 15:50 -23.62654 -46.65811 2601 ft 1 kts 328°
2026-05-06 15:50 -23.62614 -46.65838 2601 ft 12 kts 327°
2026-05-06 15:51 -23.62531 -46.65897 2601 ft 16 kts 328°
2026-05-06 15:51 -23.62433 -46.65964 2600 ft 17 kts 327°
2026-05-06 15:51 -23.62324 -46.66033 2600 ft 19 kts 340°
2026-05-06 15:51 -23.62197 -46.66071 2599 ft 20 kts 327°
2026-05-06 15:52 -23.62094 -46.66136 2601 ft 13 kts 345°
2026-05-06 15:52 -23.62047 -46.66122 2594 ft 8 kts 50°
2026-05-06 15:52 -23.62055 -46.66071 2596 ft 8 kts 143°
2026-05-06 15:52 -23.62097 -46.66042 2595 ft 3 kts 147°
2026-05-06 15:53 -23.62113 -46.66030 2597 ft 17 kts 148°
2026-05-06 15:53 -23.62431 -46.65810 2603 ft 90 kts 147°
2026-05-06 15:53 -23.63143 -46.65315 2617 ft 153 kts 146°
2026-05-06 15:53 -23.64036 -46.64703 3272 ft 149 kts 146°
2026-05-06 15:54 -23.64899 -46.63954 3695 ft 170 kts 126°
2026-05-06 15:54 -23.65553 -46.62807 3902 ft 188 kts 118°
2026-05-06 15:54 -23.66190 -46.61460 4067 ft 212 kts 116°
2026-05-06 15:54 -23.66886 -46.59941 4350 ft 235 kts 116°
2026-05-06 15:55 -23.67661 -46.58279 4736 ft 257 kts 116°
2026-05-06 15:55 -23.68509 -46.56503 5372 ft 269 kts 117°
2026-05-06 15:55 -23.69392 -46.54688 6213 ft 272 kts 117°
2026-05-06 15:55 -23.70289 -46.52864 7067 ft 275 kts 117°
2026-05-06 15:56 -23.71199 -46.51019 7869 ft 278 kts 115°
2026-05-06 15:56 -23.71795 -46.49016 8620 ft 280 kts 97°
2026-05-06 15:56 -23.71764 -46.46890 9375 ft 283 kts 80°
2026-05-06 15:56 -23.71454 -46.44754 10182 ft 286 kts 79°
2026-05-06 15:57 -23.71133 -46.42552 10570 ft 305 kts 80°
2026-05-06 15:57 -23.70792 -46.40190 10858 ft 323 kts 80°
2026-05-06 15:57 -23.70440 -46.37740 11439 ft 329 kts 81°
2026-05-06 15:57 -23.70090 -46.35260 12107 ft 332 kts 81°
2026-05-06 15:58 -23.69735 -46.32749 12712 ft 337 kts 81°
2026-05-06 15:58 -23.69373 -46.30204 13341 ft 341 kts 82°
2026-05-06 15:58 -23.69006 -46.27634 13981 ft 344 kts 82°
2026-05-06 15:58 -23.68636 -46.25042 14506 ft 348 kts 82°
2026-05-06 15:59 -23.68261 -46.22413 15010 ft 352 kts 82°
2026-05-06 15:59 -23.67885 -46.19758 15539 ft 356 kts 82°
2026-05-06 15:59 -23.67502 -46.17075 16055 ft 360 kts 82°
2026-05-06 15:59 -23.67112 -46.14367 16576 ft 364 kts 82°
2026-05-06 16:00 -23.66716 -46.11626 17092 ft 367 kts 82°
2026-05-06 16:00 -23.66315 -46.08863 17624 ft 371 kts 83°
2026-05-06 16:00 -23.65911 -46.06071 18168 ft 374 kts 83°
2026-05-06 16:00 -23.65507 -46.03254 18662 ft 377 kts 83°
2026-05-06 16:01 -23.65104 -46.00409 19107 ft 381 kts 83°
2026-05-06 16:01 -23.64700 -45.97580 19569 ft 385 kts 83°
2026-05-06 16:01 -23.64284 -45.94687 20054 ft 388 kts 82°
2026-05-06 16:01 -23.63862 -45.91772 20529 ft 391 kts 82°
2026-05-06 16:02 -23.63434 -45.88832 20995 ft 395 kts 82°
2026-05-06 16:02 -23.63002 -45.85869 21465 ft 397 kts 82°
2026-05-06 16:02 -23.62568 -45.82878 21924 ft 401 kts 82°
2026-05-06 16:02 -23.62132 -45.79860 22394 ft 404 kts 82°
2026-05-06 16:03 -23.61692 -45.76819 22866 ft 408 kts 82°
2026-05-06 16:03 -23.61247 -45.73750 23124 ft 410 kts 82°
2026-05-06 16:03 -23.60805 -45.70714 23189 ft 399 kts 82°
2026-05-06 16:03 -23.60374 -45.67783 23188 ft 387 kts 82°
2026-05-06 16:04 -23.59950 -45.64904 23176 ft 383 kts 82°
2026-05-06 16:04 -23.59530 -45.62045 23176 ft 382 kts 82°
2026-05-06 16:04 -23.59112 -45.59187 23177 ft 381 kts 82°
2026-05-06 16:04 -23.58695 -45.56333 23177 ft 381 kts 82°
2026-05-06 16:05 -23.58278 -45.53478 23173 ft 382 kts 82°
2026-05-06 16:05 -23.57857 -45.50620 23173 ft 382 kts 82°
2026-05-06 16:05 -23.57433 -45.47760 23181 ft 382 kts 82°
2026-05-06 16:05 -23.56963 -45.44911 23179 ft 383 kts 79°
2026-05-06 16:06 -23.56402 -45.42076 23178 ft 383 kts 78°
2026-05-06 16:06 -23.55790 -45.39255 23177 ft 383 kts 77°
2026-05-06 16:06 -23.55155 -45.36439 23177 ft 383 kts 77°
2026-05-06 16:06 -23.54523 -45.33623 23176 ft 383 kts 77°
2026-05-06 16:07 -23.53903 -45.30804 23174 ft 382 kts 77°
2026-05-06 16:07 -23.53295 -45.27985 23175 ft 383 kts 78°
2026-05-06 16:07 -23.52693 -45.25160 23177 ft 383 kts 78°
2026-05-06 16:07 -23.52093 -45.22335 23180 ft 383 kts 78°
2026-05-06 16:08 -23.51494 -45.19508 23178 ft 383 kts 78°
2026-05-06 16:08 -23.50903 -45.16714 23173 ft 383 kts 78°
2026-05-06 16:08 -23.50304 -45.13889 23170 ft 383 kts 78°
2026-05-06 16:08 -23.49701 -45.11060 23169 ft 383 kts 78°
2026-05-06 16:09 -23.49096 -45.08236 23166 ft 383 kts 78°
2026-05-06 16:09 -23.48491 -45.05411 23164 ft 382 kts 78°
2026-05-06 16:09 -23.47886 -45.02596 23160 ft 382 kts 78°
2026-05-06 16:09 -23.47282 -44.99783 23048 ft 379 kts 78°
2026-05-06 16:10 -23.46687 -44.97013 22790 ft 373 kts 78°
2026-05-06 16:10 -23.46100 -44.94279 22523 ft 369 kts 78°
2026-05-06 16:10 -23.45511 -44.91566 22282 ft 367 kts 77°
2026-05-06 16:10 -23.44915 -44.88869 22024 ft 365 kts 77°
2026-05-06 16:11 -23.44317 -44.86186 21770 ft 364 kts 77°
2026-05-06 16:11 -23.43720 -44.83515 21524 ft 362 kts 77°
2026-05-06 16:11 -23.43127 -44.80854 21277 ft 361 kts 78°
2026-05-06 16:11 -23.42538 -44.78208 21035 ft 359 kts 77°
2026-05-06 16:12 -23.41951 -44.75573 20791 ft 357 kts 77°
2026-05-06 16:12 -23.41366 -44.72952 20552 ft 355 kts 77°
2026-05-06 16:12 -23.40784 -44.70344 20312 ft 354 kts 77°
2026-05-06 16:12 -23.40204 -44.67748 20068 ft 352 kts 77°
2026-05-06 16:13 -23.39627 -44.65163 19834 ft 351 kts 77°
2026-05-06 16:13 -23.39051 -44.62592 19607 ft 349 kts 77°
2026-05-06 16:13 -23.38474 -44.60029 19370 ft 348 kts 77°
2026-05-06 16:13 -23.37902 -44.57481 19160 ft 344 kts 77°
2026-05-06 16:14 -23.37338 -44.54968 18842 ft 341 kts 78°
2026-05-06 16:14 -23.36778 -44.52468 18455 ft 340 kts 78°
2026-05-06 16:14 -23.36219 -44.49973 18037 ft 338 kts 78°
2026-05-06 16:14 -23.35665 -44.47497 17665 ft 335 kts 77°
2026-05-06 16:15 -23.35114 -44.45045 17281 ft 332 kts 77°
2026-05-06 16:15 -23.34543 -44.42619 16906 ft 330 kts 73°
2026-05-06 16:15 -23.33661 -44.40321 16541 ft 328 kts 66°
2026-05-06 16:15 -23.32692 -44.38082 16176 ft 326 kts 66°
2026-05-06 16:16 -23.31732 -44.35851 15803 ft 325 kts 66°
2026-05-06 16:16 -23.30794 -44.33662 15443 ft 323 kts 65°
2026-05-06 16:16 -23.29850 -44.31457 15080 ft 321 kts 65°
2026-05-06 16:16 -23.28910 -44.29263 14712 ft 319 kts 65°
2026-05-06 16:17 -23.27974 -44.27082 14357 ft 318 kts 65°
2026-05-06 16:17 -23.27045 -44.24912 13997 ft 316 kts 65°
2026-05-06 16:17 -23.26116 -44.22750 13609 ft 314 kts 65°
2026-05-06 16:17 -23.25193 -44.20608 13250 ft 311 kts 65°
2026-05-06 16:18 -23.24277 -44.18488 12893 ft 308 kts 65°
2026-05-06 16:18 -23.23369 -44.16389 12546 ft 305 kts 65°
2026-05-06 16:18 -23.22467 -44.14309 12193 ft 303 kts 65°
2026-05-06 16:18 -23.21573 -44.12245 11844 ft 301 kts 65°
2026-05-06 16:19 -23.20687 -44.10195 11494 ft 299 kts 65°
2026-05-06 16:19 -23.19808 -44.08161 11154 ft 296 kts 65°
2026-05-06 16:19 -23.18915 -44.06153 10982 ft 295 kts 64°
2026-05-06 16:19 -23.17999 -44.04159 10838 ft 295 kts 63°
2026-05-06 16:20 -23.17079 -44.02171 10680 ft 294 kts 63°
2026-05-06 16:20 -23.16164 -44.00198 10528 ft 292 kts 63°
2026-05-06 16:20 -23.15263 -43.98225 10377 ft 291 kts 64°
2026-05-06 16:20 -23.14398 -43.96233 10154 ft 291 kts 65°
2026-05-06 16:21 -23.13559 -43.94252 9930 ft 287 kts 65°
2026-05-06 16:21 -23.12730 -43.92285 9770 ft 286 kts 65°
2026-05-06 16:21 -23.11900 -43.90322 9604 ft 286 kts 65°
2026-05-06 16:21 -23.11071 -43.88362 9454 ft 285 kts 65°
2026-05-06 16:22 -23.10240 -43.86407 9291 ft 284 kts 65°
2026-05-06 16:22 -23.09410 -43.84461 9146 ft 284 kts 65°
2026-05-06 16:22 -23.08580 -43.82519 9005 ft 283 kts 65°
2026-05-06 16:22 -23.07750 -43.80585 8850 ft 282 kts 65°
2026-05-06 16:23 -23.06920 -43.78657 8693 ft 281 kts 65°
2026-05-06 16:23 -23.06105 -43.76763 8537 ft 280 kts 65°
2026-05-06 16:23 -23.05270 -43.74825 8400 ft 280 kts 65°
2026-05-06 16:23 -23.04457 -43.72938 8251 ft 279 kts 65°
2026-05-06 16:24 -23.03638 -43.71033 8098 ft 278 kts 65°
2026-05-06 16:24 -23.02820 -43.69130 7908 ft 278 kts 65°
2026-05-06 16:24 -23.01995 -43.67233 7656 ft 277 kts 65°
2026-05-06 16:24 -23.01170 -43.65351 7408 ft 275 kts 65°
2026-05-06 16:25 -23.00348 -43.63475 7144 ft 274 kts 65°
2026-05-06 16:25 -22.99530 -43.61609 6911 ft 273 kts 64°
2026-05-06 16:25 -22.98711 -43.59748 6782 ft 273 kts 64°
2026-05-06 16:25 -22.97896 -43.57894 6629 ft 272 kts 64°
2026-05-06 16:26 -22.97083 -43.56045 6458 ft 271 kts 64°
2026-05-06 16:26 -22.96271 -43.54201 6289 ft 271 kts 65°
2026-05-06 16:26 -22.95460 -43.52357 6138 ft 271 kts 64°
2026-05-06 16:26 -22.94650 -43.50517 5978 ft 270 kts 65°
2026-05-06 16:27 -22.93859 -43.48677 5674 ft 268 kts 65°
2026-05-06 16:27 -22.93085 -43.46847 5392 ft 264 kts 65°
2026-05-06 16:27 -22.92325 -43.45046 5127 ft 261 kts 65°
2026-05-06 16:27 -22.91571 -43.43253 4863 ft 260 kts 65°
2026-05-06 16:28 -22.90823 -43.41474 4548 ft 258 kts 65°
2026-05-06 16:28 -22.90080 -43.39715 4219 ft 256 kts 65°
2026-05-06 16:28 -22.89339 -43.37978 3935 ft 252 kts 65°
2026-05-06 16:28 -22.88609 -43.36263 3638 ft 250 kts 65°
2026-05-06 16:29 -22.87944 -43.34555 3337 ft 249 kts 69°
2026-05-06 16:29 -22.87359 -43.32810 3034 ft 242 kts 70°
2026-05-06 16:29 -22.86826 -43.31126 2753 ft 230 kts 71°
2026-05-06 16:29 -22.86321 -43.29512 2475 ft 222 kts 72°
2026-05-06 16:30 -22.85829 -43.27943 2210 ft 211 kts 71°
2026-05-06 16:30 -22.85544 -43.26969 2051 ft 198 kts 78°
2026-05-06 16:30 -22.85644 -43.25170 1928 ft 162 kts 99°
2026-05-06 16:30 -22.85809 -43.24027 1914 ft 144 kts 99°
2026-05-06 16:31 -22.85958 -43.22975 1911 ft 139 kts 100°
2026-05-06 16:31 -22.86101 -43.21948 1915 ft 138 kts 99°
2026-05-06 16:31 -22.86257 -43.20918 1722 ft 139 kts 101°
2026-05-06 16:31 -22.86451 -43.19908 1403 ft 135 kts 103°
2026-05-06 16:32 -22.86647 -43.18916 1124 ft 134 kts 104°
2026-05-06 16:32 -22.86965 -43.17976 878 ft 133 kts 120°
2026-05-06 16:32 -22.87571 -43.17243 747 ft 130 kts 137°
2026-05-06 16:32 -22.88320 -43.16668 613 ft 133 kts 152°
2026-05-06 16:33 -22.89193 -43.16430 293 ft 131 kts 173°
2026-05-06 16:33 -22.90082 -43.16351 119 ft 128 kts 175°
2026-05-06 16:33 -22.90931 -43.16290 24 ft 105 kts 176°
2026-05-06 16:34 -22.91344 -43.16333 20 ft 13 kts 268°
2026-05-06 16:34 -22.91349 -43.16433 22 ft 14 kts 266°
2026-05-06 16:34 -22.91350 -43.16523 22 ft 10 kts 270°
2026-05-06 16:34 -22.91351 -43.16568 22 ft 2 kts 268°
2026-05-06 16:35 -22.91351 -43.16575 22 ft 0 kts 268°